Regional Weather Roundup
Issued by NWS Cleveland, OH

Home | Current Version | Previous Version | Text Only | Print | Product List | Glossary Off
Versions: 1 2 3 4 5 6 7 8 9 10 11 12 13 14 15 16 17 18 19 20 21 22 23 24 25 26 27 28 29 30 31 32 33 34 35 36 37 38 39 40 41 42 43 44 45 46 47 48 49 50

545
ASUS41 KCLE 111300
RWRCLE
OHIO REGIONAL WEATHER ROUNDUP
NATIONAL WEATHER SERVICE WILMINGTON, OH
800 AM EST THU FEB 11 2016

NOTE: "FAIR" INDICATES FEW OR NO CLOUDS BELOW 12,000 FEET WITH NO
SIGNIFICANT WEATHER AND/OR OBSTRUCTIONS TO VISIBILITY.

OHZ001>008-015>018-024>027-034-035-043-044-111400-
   NORTHWEST OHIO

CITY           SKY/WX    TMP DP  RH WIND       PRES   REMARKS
DEFIANCE       CLOUDY    16   8  71 W5        30.20R WCI   9
FINDLAY        CLOUDY    15   9  76 W5        30.17R WCI   8
TOLEDO EXPRESS FAIR      13   6  74 W7        30.17R WCI   3
TOLEDO EXEC    FAIR      14   5  67 W7        30.18R WCI   4
LIMA           CLOUDY    14  10  84 W8        30.17R WCI   3
$$

OHZ009>014-019>023-028>033-038-089-111400-
   NORTHEAST OHIO

CITY           SKY/WX    TMP DP  RH WIND       PRES   REMARKS
CLE-HOPKINS    MOCLDY    15   0  51 NW18G25   30.14R WCI  -2
CLE-LAKEFRONT  CLOUDY    18   5  57 NW26G36   30.11R WCI  -1
CUY CO. ARPT   CLOUDY    25   5  42 NW16G28   30.09R WCI  12
LORAIN-ELYRIA  CLOUDY    12   3  67 W10       30.13R WCI  -1
ASHTABULA      CLOUDY    13   3  64 NW12G21   30.05R WCI  -1
AKRON-CANTON   LGT SNOW  10   5  80 W10       30.08R WCI  -4
WOOSTER        NOT AVBL
MANSFIELD      CLOUDY     8   4  83 W7        30.11R WCI  -3
YOUNGSTOWN     LGT SNOW  12   5  73 W10G22    30.04R WCI  -1
$$

OHZ042-051>053-060>062-070>072-077>081-111400-
  SOUTHWEST OHIO

CITY           SKY/WX    TMP DP  RH WIND       PRES   REMARKS
CINC-COVINGTON MOCLDY    11   6  81 W5        30.23R WCI   3
CINC-LUNKEN    FAIR      15   6  67 NW3       30.28R
HAMILTON       FAIR       6   2  83 CALM      30.26R
DAYTON         NOT AVBL
WRIGHT-PAT AFB PTCLDY     8   4  86 S5        30.22R WCI  -1
DAYTON GENERAL FAIR       9   3  77 CALM      30.21R
WILMINGTON     FAIR       7   3  84 W5        30.20R WCI  -2
$$

OHZ036-037-039>041-045>050-054>059-063>069-073>076-082>088-111400-
  CENTRAL AND SOUTHEAST OHIO

CITY           SKY/WX    TMP DP  RH WIND       PRES   REMARKS
COLUMBUS       CLOUDY    10   3  73 W6        30.20R WCI   0
OSU AIRPORT    CLOUDY     9   5  84 W8        30.19R WCI  -3
BOLTON FIELD   CLOUDY     7   3  85 W5        30.20R WCI  -2
RICKENBACK AFB NOT AVBL
NEWARK         CLOUDY     7   1  76 MISG      30.18R
MARION         CLOUDY    13   6  74 W6        30.17R WCI   4
LANCASTER      FAIR      -1  -5  82 CALM      30.20R
ZANESVILLE     FAIR       9   3  77 W6        30.18R WCI  -1
NEW PHILLY     CLOUDY    11   3  70 W5        30.15R WCI   3
$$




USA.gov is the U.S. government's official web portal to all federal, state and local government web resources and services.